SL-14 R/B, 21785

Orbit data source: Space-Track

SL-14 R/B, 21785 is space debris in LEO originally from a launch on Tue, 12 Nov 1991 UTC launched from the Plesetsk Missile And Space Complex (PKMTR). Debris objects in space refer to the collection of defunct objects orbiting the Earth. Examples of debris include non-operational satellites, rocket bodies, and fragments generated from explosions, collisions, or faulty payload assembly.

Loading next visibility...
Identifier
21785, 1991-077G
Orbit
LEO
Country
Flag of CISCIS
Related business
Manufacturer
Yuzhnoe
Mission
Spacecraft
Bus & Motor
S5M, Unknown motor
Mass
1,600 kg wet, 1,600 kg dry
Launch date (UTC)
1991-11-12 (34 years ago)
Launch vehicle
Unknown
Launch site
Plesetsk Missile And Space Complex (PKMTR)
Object type
Payload
Rocket body
Debris
Shape & HBR
Cyl, 1.4 m
Radar Cross Section
7.351 m², Large (>1 m²)

Expand to show TLE details & history
Last TLE update: 11 hours ago

TLE from 11 hours ago
0 SL-14 R/B
1 21785U 91077G   26126.13892652  .00000027  00000-0  98408-4 0  9992
2 21785  82.6010  32.5639 0039207 122.2206  42.6032 12.55090573579483
Epoch: 2026-05-06T03:20Z
TLE epoch observation values (Epoch: 2026-05-06T03:20:03.251Z)
Latitude
14.7195°
Longitude
-63.39874°
Altitude
1,422.775 km
Speed
7.161 km/s
True Right ascension
14h 02m 28s
True Declination
14° 38' 33"
Sunlit
Object was in full shadow at epoch
Visualization orbit readout
Latitude
Unknown
Longitude
Unknown
Altitude
Unknown
Speed
Unknown
Apparent Right ascension
Unknown
Apparent Declination
Unknown
Sunlit
N/A
Visualization observer readout
Local Sidereal Time
22:23:51
Azimuth
Unknown
Elevation
Unknown
Doppler factor
Unknown
Orbital elements
Apogee altitude
1,471.259 km
Perigee altitude
1,409.95 km
Semi-major axis
7,818.741 km
Eccentricity
0.00392
Inclination
82.601°
RAAN
32.5639°
Arg. of periapsis
122.2206°
True anomaly
42.90842°
Mean anomaly
42.6032°
Eccentric anomaly
42.7557°
Mean motion
3.13934 °/min
Orbital period
114.67 mins
BSTAR
0.000098408
Loading maneuver chart data...
Computing Atmospheric mass density...
Loading historical data...
Loading historical data...
Loading historical data...
Loading historical data...
Loading historical data...
Loading historical data...
Loading historical data...

Documentation

Showing up to 5 results
|